Погода в Бисере

Погода в Бисере : погода сейчас, прогноз погоды и архив. Всё, что Вы хотите узнать о погоде в Бисере!

Поиск расширенной информации на нашем сайте:

Другие новости

Новости СМИ2

Главная страница сайта

Новости сайта

03.07.2017

Напоминаем, что на нашем специализированном сайте Метеоцентр.Азия вы можете получить высокодетализированные автоматические прогнозы погоды по пунктам России, СНГ и мира в авиационном формате (включающие направление и скорость ветра, видимость, явления погоды, количество и форму облачности, нижнюю и верхнюю границу облачности).


Погода в Бисере - сегодня

Время (UTC), дата Ветер
(°,м/с) 
Видим.   Явления Облачность Т
(°С)
Тd
(°С)
f(%) Тe
(°С)
Pmin
(гПа)
dP
(гПа)
Po
(мм)
O2
(г/м3)
Тmin Tmax R s Состояние
почвы
18 15.08.18 300 (СЗ) 20000 м    3/3 600 м 
[Sc]
+12.7 +9 78 +14  1013.8  0.5  720  275           
21 15.08.18 300 (СЗ) 20000 м    ясно 
+10.8 +9 89 +12  1014.3  0.1  720  277           
00 16.08.18 тихо ()   20000 м    3/0 2000 м средняя 
[Ac lent]
+7.4 +6.8 96 +7  1015.1  0.1  720  281           
03 16.08.18 210 (ЮЗ) 20000 м    4/0 2000 м средняя, верхняя 
[Ac lent|Ci fib]
+11 +9.6 91 +13  1014.5  0.2  720  277  +7.4        влажная 
06 16.08.18 240 (ЮЗ) 20000 м    10/10 600 м 
[Cu med, cong]
+15.7 +10.8 73 +19  1014.5  0.2  720  272           
09 16.08.18 170 (Ю) 10 км  слаб. ливневой дождь  10/10 600 м 
[Sc]
+13.4 +11.3 87 +18  1012  0.2  719  274           
18 16.08.18 210 (ЮЗ) 2000 м  ливневой дождь  10/10 600 м кучево-дожд. 
[Cb calv]
+14.5 +13.9 96 +23  1006.4  -0.8  715  271           
21 16.08.18 020 (С) 4000 м  в посл. час ливневой дождь  10/10 600 м кучево-дожд. 
[Cb calv]
+11 +10.5 97 +13  1006.8  -0.3  715  275           
00 17.08.18 350 (С) 4000 м  в посл. час ливневой дождь  10/10 600 м кучево-дожд. 
[Cb calv]
+10.7 +10.2 97 +12  1008.4  1.5  716  276           
03 17.08.18 340 (С) 4000 м  слаб. ливневой дождь  10/10 600 м кучево-дожд. 
[Cb calv]
+10.6 +9.8 95 +12  1010.6  717  276  +10.4    17    мокрая 
06 17.08.18 320 (СЗ) 20000 м  {ливн. осадки}  10/10 600 м 
[Sc]
+11.6 +10.2 91 +13  1011.4  0.9  718  276           
12 17.08.18 290 (З) 20000 м  {ливн. осадки}  9/9 600 м 
[Sc]
+10.6 +8.6 87 +10  1015.2  0.7  720  278           
18 17.08.18 320 (СЗ) 20000 м    6/4 600 м 
[Sc]
+8.9 +7.2 89 +8  1016.3  0.4  721  280           
21 17.08.18 360 (С) 20000 м    ясно 
+7.5 +6.3 92 +7  1016.8  0.1  721  282           
00 18.08.18 330 (СЗ) 20000 м    10/10 600 м 
[Sc]
+7.4 +6 91 +7  1017.5  0.7  722  282           
03 18.08.18 320 (СЗ) 20000 м    9/9 600 м 
[Sc]
+8.1 +6.6 90 +8  1018.6  1.1  722  282  +6.6        влажная 
06 18.08.18 290 (З) 20000 м    10/10 600 м 
[Sc]
+10.8 +8 83 +11  1019  723  279           
09 18.08.18 290 (З) 20000 м    9/9 600 м 
[Sc]
+13.6 +7.5 67 +14  1018.4  723  276           
12 18.08.18 тихо ()   10 км  слаб. ливневой дождь  10/10 600 м кучево-дожд. 
[Cb calv]
+9.6 +8.5 93 +10  1019.8  0.6  724  280           
18 18.08.18 330 (СЗ) 20000 м  {ливн. осадки}  10/10 600 м 
[Sc]
+8.7 +7.4 92 +10  1021.3  0.6  724  282           
21 18.08.18 360 (С) 20000 м    10/8 600 м верхняя 
[Sc|Ci fib]
+6.6 +5.8 95 +8  1021.7  724  284           
00 19.08.18 020 (С) 20000 м    9/9 600 м 
[Sc]
+5.5 +4.9 96 +5  1022.2  0.2  725  285           
03 19.08.18 020 (С) 20000 м  {ливн. осадки}  1/0 верхняя 
[Ci fib]
+7.9 +6.6 91 +8  1022.3  0.6  725  283  +4.2    0.3    мокрая 
06 19.08.18 тихо ()   20000 м  {ливн. осадки}  8/8 600 м 
[Cu Sc]
+12.7 +7.3 70 +13  1021.2  0.1  725  278           
09 19.08.18 080 (В) 20000 м    8/8 600 м 
[Cu Sc]
+15.1 +5.8 54 +16  1019.5  -1.2  724  275           
Время (UTC), дата Ветер
(°,м/с) 
Видим.   Явления Облачность Т
(°С)
Тd
(°С)
f(%) Тe
(°С)
Pmin
(гПа)
dP
(гПа)
Po
(мм)
O2
(г/м3)
Тmin Tmax R s Состояние
почвы

Для получения пояснительной информации подведите курсор к названию столбца.

ПОГОДА в Бисере - архив

Всё, что Вы хотите узнать о погоде в Бисере - удобно и подробно!

Выберите нужную дату (начиная с 1 января 2015* года) и нажмите кнопку "Найти".
Будут отображены архивные сводки погоды по пункту Бисер, начиная с указанной даты.


Отображать данные в формате CSV (для использования в таблицах Excel)


Внимание! Наш архив погоды предназначен исключительно для личного некоммерческого использования в познавательных целях. Если Вам необходимы официальные справки о состоянии погоды (для производственных, юридических, коммерческих и т.п. целей), обращайтесь в органы Росгидромета.

*Примечание: данная дата относится к архиву по метеостанциям СССР (Россия, СНГ, Балтия).
Архив по метеостанциям Зарубежной Европы и Азии (кроме Китая) хранится 10 дней, по другим регионам земного шара (Китай, Африка, Америка, Австралия, Океания) - 1 день.

Бисер - район местоположения метеостанции


Название, широта, долгота, высота метеостанции:
Бисер 58.5°ш. 58.9°д. 463 м над ур. моря [Российская Федерация]

Дополнительная информация

В oтличие oт бoльшинства пoгoдных сайтoв мы публикуем пoдрoбную метеoинфoрмацию в детальнoм прoфессиoнальнoм фoрмате.

Характеристики температуры и влажнoсти вoздуха измеряются на высoте 2 м в тени вдали oт зданий и деревьев.
Скoрoсть ветра измеряется на высoте 10 м (на урoвне рoста челoвека скoрoсть ветра ниже в 1.5-2 раза). Если метеoстанция нахoдится в гoрoде или в лесу, тo скoрoсть ветра занижена на 2-4 м/с пo сравнению с oткрытым местoм. Скoрoсть ветра над акватoриями крупных рек и oзёр, а также на вершинах хoлмoв на 2-5 м/с выше, чем в oбычных услoвиях.
Атмoсфернoе давление в разных тoчках местнoсти мoжет значительнo oтличаться oт давления на метеoстанции, в зависимoсти oт услoвий рельефа (при пoдъёме на 10 м давление пoнижается примернo на 1 мм рт.ст.).